Southern Illinois Airport
KMDH : now visible

Airfield :











YOU CAN JOIN US ON...

 
LOGIN :

Register | Disclaimer

   EN    FR    IT 

 









Legend :    VFR   Marginal VFR   IFR   Intensive IFR   Very Intensive IFR
Visi :
Ceiling :
>= 8 km
>= 3000ft
5 to 8 km
1000 to 3000 ft
1500m to 5 km
500 to 1000 ft
800 to 1500m
200 to 500 ft
< 800m
< 200 ft
Symbols :   Thunderstorms  Fog  Heavy snow  Heavy precipitations  Wind > 20 kt






- Airport Elevation : 411 ft
- IATA code : MDH


KMDH - Southern Illinois

CURRENT METAR :
  • 241452Z 15011KT 10SM FEW095 08/02 A3018 RMK AO2 SLP221 T00830022 58003

EXPIRED METARs :
  • 241352Z 16007KT 10SM BKN095 08/02 A3019 RMK AO2 SLP225 T00780022
  • 241252Z 15008KT 10SM OVC095 07/02 A3018 RMK AO2 SLP222 T00720022

TAF N/A
KZKC FIR / North America



MET'MAP, your aeronautical weather chart ! - Copyright ORBIFLY December 2007 - Disclaimer

ORBIFLY MET'MAP TEAM :

Programming & Development : Alexandra Zaïnal
Concept & original design : Baudouin d'Aumeries
Assistance for programming : Marc-Olivier Méhu
Technical & hardware support : Manuel Goepfert

Contact : metmap@orbifly.com




SOURCES & CREDITS :

   NOAA       Earth
Advisory